TimeEDT,TemperatureF,Dew PointF,Humidity,Sea Level PressureIn,VisibilityMPH,Wind Direction,Wind SpeedMPH,Gust SpeedMPH,PrecipitationIn,Events,Conditions,WindDirDegrees,DateUTC
12:11 AM,38.5,33.8,83,30.14,10.0,North,6.9,-,N/A,Rain,Rain,360,2012-11-03 04:11:00
12:31 AM,38.5,33.6,83,30.14,10.0,North,3.5,-,N/A,,Overcast,360,2012-11-03 04:31:00
12:52 AM,38.7,32.2,78,30.14,10.0,NNE,5.8,-,N/A,,Mostly Cloudy,30,2012-11-03 04:52:00
1:12 AM,38.5,32.0,78,30.15,10.0,North,5.8,-,N/A,,Mostly Cloudy,360,2012-11-03 05:12:00
1:32 AM,39.2,29.7,69,30.15,10.0,North,9.2,-,N/A,,Overcast,360,2012-11-03 05:32:00
1:52 AM,39.6,29.3,67,30.15,10.0,North,6.9,-,N/A,,Overcast,350,2012-11-03 05:52:00
2:13 AM,39.0,31.6,75,30.16,10.0,Calm,Calm,-,N/A,,Overcast,0,2012-11-03 06:13:00
2:33 AM,39.6,29.3,67,30.16,10.0,North,4.6,-,N/A,,Overcast,10,2012-11-03 06:33:00
2:53 AM,39.6,29.3,67,30.16,10.0,North,5.8,-,N/A,,Overcast,350,2012-11-03 06:53:00
3:13 AM,39.4,28.4,65,30.16,10.0,North,8.1,-,N/A,,Overcast,350,2012-11-03 07:13:00
3:33 AM,39.6,28.6,65,30.16,10.0,North,5.8,-,N/A,,Overcast,10,2012-11-03 07:33:00
3:54 AM,39.7,28.2,63,30.16,10.0,North,5.8,-,N/A,,Overcast,350,2012-11-03 07:54:00
4:14 AM,39.6,29.3,67,30.16,10.0,NNE,3.5,-,N/A,,Overcast,20,2012-11-03 08:14:00
4:34 AM,39.4,30.4,70,30.17,10.0,NNE,3.5,-,N/A,,Overcast,30,2012-11-03 08:34:00
4:54 AM,39.4,31.6,74,30.17,10.0,ENE,3.5,-,N/A,,Overcast,60,2012-11-03 08:54:00
5:15 AM,38.5,31.8,77,30.17,10.0,NNW,3.5,-,N/A,,Mostly Cloudy,330,2012-11-03 09:15:00
5:35 AM,37.6,31.1,77,30.17,10.0,Calm,Calm,-,N/A,,Mostly Cloudy,0,2012-11-03 09:35:00
5:55 AM,38.5,31.1,75,30.18,10.0,North,3.5,-,N/A,,Mostly Cloudy,10,2012-11-03 09:55:00
6:15 AM,38.7,31.5,75,30.18,10.0,North,3.5,-,N/A,,Mostly Cloudy,10,2012-11-03 10:15:00
6:35 AM,38.7,32.0,77,30.18,10.0,NNE,3.5,-,N/A,,Mostly Cloudy,20,2012-11-03 10:35:00
6:50 AM,38.3,32.9,81,30.18,10.0,East,3.5,-,N/A,,Overcast,80,2012-11-03 10:50:00
7:11 AM,37.9,33.1,83,30.18,10.0,Calm,Calm,-,N/A,,Mostly Cloudy,0,2012-11-03 11:11:00
7:31 AM,36.9,32.4,84,30.18,10.0,Calm,Calm,-,N/A,,Clear,0,2012-11-03 11:31:00
7:51 AM,37.0,33.1,86,30.18,10.0,Calm,Calm,-,N/A,,Scattered Clouds,0,2012-11-03 11:51:00
8:11 AM,36.5,32.5,86,30.18,10.0,ENE,4.6,-,N/A,,Mostly Cloudy,70,2012-11-03 12:11:00
8:31 AM,37.0,33.1,86,30.19,10.0,Calm,Calm,-,N/A,,Overcast,0,2012-11-03 12:31:00
8:52 AM,37.0,33.3,86,30.20,10.0,Calm,Calm,-,N/A,,Overcast,0,2012-11-03 12:52:00
9:12 AM,37.0,33.3,86,30.20,10.0,Calm,Calm,-,N/A,,Mostly Cloudy,0,2012-11-03 13:12:00
9:32 AM,37.4,33.8,87,30.20,10.0,ENE,4.6,-,N/A,,Overcast,60,2012-11-03 13:32:00
9:52 AM,37.8,33.8,86,30.21,10.0,Calm,Calm,-,N/A,,Overcast,0,2012-11-03 13:52:00
10:12 AM,37.9,34.0,86,30.21,10.0,East,4.6,-,N/A,Rain,Light Rain,90,2012-11-03 14:12:00
10:33 AM,37.6,33.8,86,30.21,10.0,Calm,Calm,-,N/A,Rain,Light Rain,0,2012-11-03 14:33:00
10:53 AM,38.3,34.3,86,30.22,5.0,Calm,Calm,-,N/A,Rain,Rain,0,2012-11-03 14:53:00
11:13 AM,37.6,33.1,84,30.21,3.0,NE,4.6,-,N/A,Rain,Light Rain,50,2012-11-03 15:13:00
11:33 AM,38.7,34.7,86,30.21,7.0,East,6.9,-,N/A,Rain,Light Rain,90,2012-11-03 15:33:00
11:54 AM,39.0,34.9,85,30.22,10.0,East,4.6,-,N/A,,Overcast,80,2012-11-03 15:54:00
12:14 PM,39.6,34.7,83,30.22,10.0,East,3.5,-,N/A,Rain,Light Rain,90,2012-11-03 16:14:00
12:34 PM,39.9,34.7,82,30.22,10.0,ESE,3.5,-,N/A,,Overcast,110,2012-11-03 16:34:00
12:54 PM,40.3,34.9,81,30.22,10.0,ENE,4.6,-,N/A,,Overcast,60,2012-11-03 16:54:00
1:14 PM,40.1,34.2,79,30.21,10.0,Calm,Calm,-,N/A,,Mostly Cloudy,0,2012-11-03 17:14:00
1:35 PM,40.3,33.4,77,30.21,10.0,North,4.6,-,N/A,Rain,Light Rain,360,2012-11-03 17:35:00
1:55 PM,40.6,33.4,75,30.21,10.0,NW,4.6,-,N/A,Rain,Light Rain,310,2012-11-03 17:55:00
2:15 PM,40.5,33.4,76,30.21,10.0,NNE,3.5,-,N/A,Rain,Light Rain,30,2012-11-03 18:15:00
2:35 PM,41.4,34.2,76,30.21,10.0,NE,5.8,-,N/A,Rain,Light Rain,40,2012-11-03 18:35:00
2:55 PM,41.4,32.5,71,30.21,10.0,North,4.6,-,N/A,,Overcast,10,2012-11-03 18:55:00
3:11 PM,41.4,32.9,72,30.21,10.0,North,5.8,-,N/A,Rain,Light Rain,360,2012-11-03 19:11:00
3:31 PM,40.8,33.4,75,30.20,10.0,North,6.9,-,N/A,,Overcast,360,2012-11-03 19:31:00
3:51 PM,42.3,31.5,66,30.20,10.0,North,4.6,-,N/A,,Mostly Cloudy,360,2012-11-03 19:51:00
4:11 PM,41.9,32.0,68,30.20,10.0,North,5.8,-,N/A,,Overcast,350,2012-11-03 20:11:00
4:31 PM,41.5,32.0,69,30.20,10.0,North,4.6,-,N/A,,Mostly Cloudy,360,2012-11-03 20:31:00
4:52 PM,41.0,32.0,70,30.20,10.0,North,4.6,-,N/A,,Scattered Clouds,360,2012-11-03 20:52:00
5:12 PM,41.4,32.0,69,30.20,10.0,NE,5.8,-,N/A,,Scattered Clouds,40,2012-11-03 21:12:00
5:32 PM,41.0,32.2,71,30.20,10.0,North,4.6,-,N/A,,Mostly Cloudy,10,2012-11-03 21:32:00
5:52 PM,40.5,32.0,72,30.20,10.0,NNE,4.6,-,N/A,,Overcast,30,2012-11-03 21:52:00
6:13 PM,40.3,32.0,72,30.20,10.0,NNE,3.5,-,N/A,,Overcast,30,2012-11-03 22:13:00
6:33 PM,40.3,31.6,71,30.20,10.0,North,3.5,-,N/A,,Overcast,10,2012-11-03 22:33:00
6:53 PM,40.1,32.0,73,30.20,10.0,Calm,Calm,-,N/A,,Overcast,0,2012-11-03 22:53:00
7:13 PM,40.1,32.0,73,30.20,10.0,Calm,Calm,-,N/A,,Overcast,0,2012-11-03 23:13:00
7:33 PM,40.3,31.6,71,30.20,10.0,Calm,Calm,-,N/A,,Overcast,0,2012-11-03 23:33:00
7:54 PM,40.3,32.2,73,30.21,10.0,Calm,Calm,-,N/A,,Overcast,0,2012-11-03 23:54:00
8:14 PM,39.4,32.9,78,30.21,10.0,North,3.5,-,N/A,Rain,Rain,10,2012-11-04 00:14:00
8:34 PM,39.6,33.1,78,30.21,10.0,Calm,Calm,-,N/A,,Overcast,0,2012-11-04 00:34:00
8:54 PM,40.1,31.5,71,30.21,10.0,North,4.6,-,N/A,,Overcast,350,2012-11-04 00:54:00
9:14 PM,40.5,30.6,68,30.21,10.0,North,4.6,-,N/A,,Overcast,350,2012-11-04 01:14:00
9:35 PM,40.5,29.1,64,30.21,10.0,North,3.5,-,N/A,,Overcast,360,2012-11-04 01:35:00
9:55 PM,40.6,29.7,65,30.21,10.0,North,4.6,-,N/A,,Overcast,360,2012-11-04 01:55:00
10:15 PM,40.8,29.3,64,30.21,10.0,North,3.5,-,N/A,,Overcast,350,2012-11-04 02:15:00
10:35 PM,41.0,29.8,64,30.21,10.0,North,3.5,-,N/A,,Overcast,360,2012-11-04 02:35:00
10:50 PM,41.0,30.2,65,30.21,10.0,Calm,Calm,-,N/A,,Overcast,0,2012-11-04 02:50:00
11:11 PM,41.0,30.2,65,30.21,10.0,North,3.5,-,N/A,,Overcast,10,2012-11-04 03:11:00
11:31 PM,41.0,31.3,68,30.20,10.0,North,3.5,-,N/A,,Overcast,10,2012-11-04 03:31:00
11:51 PM,41.0,31.3,68,30.20,10.0,East,5.8,-,N/A,,Overcast,100,2012-11-04 03:51:00